User: anonymous   Login
Location: Unspecified
(0.0000°N, 0.0000°E)
Time: 20:39:38
(UTC+00:00)
Language:

USA 8 - Orbit

View from above orbital plane
View from above orbital plane
View from above satellite
View from above satellite

Ground track
Ground track

The orbit data is extracted from the following two-line orbital elements,

1 15543U 85010B   18032.97951239 0.00000000  00000-0  00000-0 0    04
2 15543  17.3917 346.1616 0130013 325.9937  33.1916  0.99803723    05
Epoch (UTC): 01 February 2018 23:30:29
Eccentricity: 0.0130013
inclination: 17.3917°
perigee height: 35368 km
apogee height: 36468 km
right ascension of ascending node: 346.1616°
argument of perigee: 325.9937°
revolutions per day: 0.99803723
mean anomaly at epoch: 33.1916°
orbit number at epoch: 0

The dashed part of the orbit path shows where the satellite is in the earth's shadow,  

DLR